Torna al catalogo

WESTFORD NEEDLES

AttivoPO
NORAD 19051·DEBRIS·🇺🇸 United States

Lanciato May 9, 1963 da Vandenberg Space Force Base

Loading…

Prossimi Passaggi (prossime 24 ore)

TLE

AggiornatoSource: Space-Track

Epoca: Sep 14, 2026, 14:55 UTC

1 19051U 63014EA  26257.62216577  .00000427  00000-0  19159+0 0  9995
2 19051  87.3627 143.9813 0197880 125.7020 236.2425  8.66836176451094

Traccia WESTFORD NEEDLES in tempo reale con AllMySat

Download on the App Store